Total_Precipitation_Accumulation
2.01 1.97 2.40 3.24 3.69 3.17 2.71 2.16 1.86 1.80 1.53 1.24 0.97 0.93 1.15 1.52 1.94 2.25 2.48 2.33 1.61 1.26 1.30 1.92 2.43 2.20 1.80 1.55 1.47 1.48 1.41 1.44 1.33 1.24 1.10 0.99 0.90 0.82 0.71 0.60 0.62 0.61 0.56 0.51 0.52 0.64 0.66 0.67 0.82
1.53 2.32 2.98 3.81 3.35 2.67 2.50 2.15 2.00 1.68 1.23 1.00 0.73 0.66 0.76 0.79 0.83 1.29 2.32 2.33 1.48 1.18 1.22 1.45 2.01 1.91 1.58 1.40 1.39 1.43 1.38 1.47 1.38 1.20 1.03 0.89 0.87 0.87 0.78 0.72 0.80 0.65 0.55 0.49 0.54 0.66 0.72 0.73 0.83
1.70 2.74 3.60 3.78 2.66 2.37 2.44 2.23 1.84 1.33 0.93 0.86 0.71 0.63 0.77 0.97 1.02 1.43 2.08 1.73 1.30 1.18 1.21 1.58 1.98 1.81 1.59 1.43 1.47 1.51 1.44 1.44 1.29 1.04 0.86 0.82 0.88 0.92 0.92 0.91 0.87 0.65 0.55 0.48 0.52 0.64 0.71 0.73 0.81
1.97 3.02 3.27 2.99 2.43 1.98 1.95 1.97 1.50 1.15 0.88 0.60 0.62 0.68 0.71 1.02 1.02 1.31 1.41 1.23 1.08 1.17 1.19 1.48 1.84 1.74 1.58 1.43 1.48 1.51 1.52 1.49 1.39 1.11 0.92 0.90 0.93 0.91 0.89 0.95 0.81 0.70 0.63 0.55 0.57 0.64 0.71 0.70 0.75
2.35 3.10 3.02 2.60 2.37 1.95 1.63 1.38 1.17 1.05 0.91 0.66 0.59 0.81 1.10 1.42 1.25 1.19 1.16 1.11 0.95 1.04 1.04 1.19 1.59 1.62 1.50 1.41 1.56 1.61 1.61 1.60 1.54 1.26 1.07 0.98 0.92 0.89 0.91 0.97 0.83 0.77 0.71 0.67 0.70 0.73 0.74 0.73 0.78
2.61 2.72 2.91 2.56 2.36 2.04 1.92 1.39 1.18 1.06 0.82 0.69 0.69 0.93 1.43 1.73 1.49 1.35 1.19 1.23 1.20 1.16 1.05 1.02 1.34 1.43 1.38 1.39 1.46 1.51 1.51 1.48 1.44 1.23 1.07 1.00 0.94 0.91 0.99 1.05 0.94 0.87 0.77 0.71 0.73 0.77 0.83 0.84 0.83
2.52 2.63 2.71 2.23 2.28 2.42 2.08 1.39 1.26 1.07 0.95 0.75 0.62 1.01 1.49 1.82 1.59 1.36 1.29 1.30 1.38 1.29 1.22 1.10 1.12 1.21 1.40 1.47 1.43 1.34 1.26 1.25 1.22 1.10 1.04 0.98 0.95 0.90 0.94 0.99 0.92 0.91 0.90 0.86 0.81 0.84 0.91 0.87 0.88
1.91 2.15 2.23 2.16 2.31 2.52 1.78 1.22 0.98 0.89 0.83 0.60 0.54 0.94 1.33 1.39 1.34 1.32 1.44 1.55 1.68 1.48 1.29 1.09 1.01 1.08 1.13 1.20 1.29 1.33 1.31 1.25 1.21 1.08 0.98 0.95 0.89 0.80 0.84 0.80 0.78 0.86 0.97 1.06 1.01 1.00 0.97 0.97 0.93
1.77 2.27 2.54 2.55 2.30 2.00 1.24 1.01 0.88 0.69 0.74 0.69 0.54 0.60 0.77 0.87 1.02 1.19 1.24 1.37 1.47 1.25 1.13 1.12 1.08 1.12 1.16 1.09 1.12 1.30 1.35 1.33 1.18 1.08 1.02 0.91 0.72 0.63 0.69 0.68 0.82 0.94 1.11 1.21 1.24 1.21 1.15 1.06 0.91
1.82 2.44 2.45 1.91 1.65 1.35 0.96 0.89 0.81 0.83 0.87 0.82 0.63 0.63 0.75 0.80 0.98 1.13 1.03 1.01 0.93 0.89 0.89 0.94 0.98 1.08 1.11 1.01 1.24 1.45 1.31 1.16 0.93 0.93 0.85 0.82 0.76 0.73 0.61 0.67 0.89 1.04 1.11 1.15 1.29 1.37 1.21 0.94 0.68
1.48 1.93 1.72 1.50 1.26 1.02 0.86 0.87 0.75 0.81 0.94 0.82 0.67 0.68 0.88 0.95 0.95 0.92 0.84 0.81 0.74 0.77 0.77 0.73 0.79 0.87 0.97 1.11 1.36 1.62 1.66 1.44 1.22 1.01 0.93 0.90 0.79 0.70 0.66 0.66 0.74 0.84 0.89 0.84 0.92 0.95 0.80 0.70 0.63
1.28 1.24 1.23 1.39 1.13 1.04 0.86 0.85 0.86 0.80 0.82 0.71 0.61 0.64 0.81 0.97 0.99 0.85 0.69 0.60 0.58 0.62 0.70 0.57 0.51 0.67 0.81 0.92 1.04 1.30 1.38 1.31 1.16 0.98 0.89 0.94 0.88 0.78 0.76 0.74 0.79 0.80 0.79 0.88 0.90 0.94 0.87 0.71 0.64
1.56 1.33 1.09 1.07 1.12 1.13 0.91 0.87 0.87 0.81 0.72 0.65 0.64 0.75 0.82 0.82 0.80 0.73 0.61 0.53 0.54 0.61 0.68 0.63 0.53 0.53 0.59 0.65 0.73 0.86 1.03 1.14 1.12 1.05 0.88 0.87 0.86 0.83 0.85 0.80 0.83 0.75 0.73 0.83 0.90 0.91 0.94 0.84 0.72
1.38 1.21 1.15 1.11 1.07 1.06 1.06 0.85 0.87 1.01 0.78 0.71 0.76 0.84 0.80 0.72 0.70 0.76 0.65 0.58 0.52 0.55 0.68 0.68 0.58 0.53 0.54 0.54 0.55 0.55 0.71 0.87 1.02 1.01 0.89 0.91 0.92 0.87 0.92 0.87 0.87 0.84 0.78 0.82 0.99 0.94 0.98 0.96 0.88
1.25 1.38 1.28 1.15 1.09 1.07 1.07 1.15 1.06 1.00 0.81 0.77 0.79 0.77 0.75 0.68 0.65 0.72 0.67 0.58 0.52 0.51 0.56 0.63 0.60 0.60 0.63 0.64 0.64 0.54 0.58 0.66 0.80 0.92 0.91 0.95 0.90 0.83 0.86 0.87 0.85 0.85 0.86 0.86 0.91 0.96 1.02 0.92 0.87
1.52 1.65 1.69 1.37 1.21 1.05 1.12 1.45 1.31 1.08 0.88 0.88 0.84 0.74 0.72 0.66 0.60 0.65 0.63 0.61 0.58 0.58 0.60 0.65 0.64 0.69 0.72 0.76 0.78 0.73 0.78 0.81 0.83 0.97 0.94 0.89 0.92 0.89 0.89 0.93 0.94 0.99 1.03 1.00 1.01 1.06 1.08 1.03 1.01
1.67 1.65 1.48 1.34 1.11 0.96 1.01 1.25 1.27 1.15 0.93 0.80 0.74 0.64 0.56 0.49 0.47 0.47 0.48 0.50 0.53 0.53 0.56 0.60 0.69 0.70 0.70 0.75 0.87 1.00 1.04 1.05 1.02 1.06 1.02 0.92 0.90 0.95 1.06 1.09 1.15 1.13 1.15 1.17 1.13 1.15 1.08 1.09 1.10
1.63 1.34 1.13 1.04 1.00 0.89 0.82 0.93 1.00 1.04 0.91 0.70 0.57 0.49 0.44 0.36 0.34 0.33 0.32 0.34 0.41 0.44 0.48 0.52 0.60 0.78 0.90 0.94 0.94 1.08 1.14 1.22 1.31 1.36 1.24 1.10 1.12 1.25 1.40 1.48 1.42 1.42 1.42 1.42 1.37 1.45 1.34 1.16 1.16
1.21 1.15 1.02 0.85 0.84 0.86 0.77 0.77 0.83 0.84 0.80 0.66 0.50 0.40 0.36 0.29 0.23 0.21 0.21 0.24 0.26 0.30 0.36 0.43 0.49 0.66 0.79 0.85 0.95 1.13 1.30 1.47 1.62 1.74 1.64 1.50 1.46 1.63 1.75 1.69 1.77 1.80 1.67 1.68 1.72 1.79 1.73 1.47 1.33
1.04 1.04 0.91 0.78 0.68 0.67 0.67 0.70 0.74 0.71 0.68 0.55 0.42 0.34 0.27 0.20 0.17 0.13 0.11 0.13 0.16 0.19 0.23 0.29 0.37 0.47 0.59 0.75 0.98 1.18 1.47 1.56 1.64 1.78 1.82 1.76 1.70 1.85 1.89 1.98 2.06 2.10 2.09 2.05 1.94 2.02 2.11 1.85 1.63
0.84 0.88 0.80 0.71 0.62 0.59 0.57 0.69 0.70 0.64 0.60 0.51 0.38 0.30 0.22 0.16 0.12 0.09 0.09 0.08 0.13 0.14 0.15 0.22 0.34 0.47 0.68 0.92 1.23 1.52 1.74 1.82 1.87 1.82 1.89 1.97 2.02 2.08 2.11 2.17 2.24 2.25 2.11 2.10 2.19 2.28 2.61 2.42 2.07
0.79 0.60 0.54 0.51 0.57 0.59 0.54 0.76 0.59 0.50 0.50 0.44 0.37 0.33 0.25 0.18 0.13 0.10 0.11 0.10 0.11 0.14 0.18 0.29 0.47 0.66 0.92 1.26 1.61 1.84 2.06 2.16 2.01 1.99 2.02 2.03 1.99 2.02 2.13 2.14 2.14 2.11 2.06 2.14 2.19 2.22 2.60 2.78 2.49
0.53 0.45 0.52 0.53 0.50 0.43 0.35 0.48 0.46 0.41 0.47 0.37 0.30 0.30 0.30 0.24 0.18 0.16 0.18 0.18 0.21 0.28 0.34 0.50 0.75 1.04 1.32 1.55 1.74 1.94 2.07 2.09 2.07 2.02 2.01 1.95 1.92 1.88 1.92 1.94 2.03 2.06 2.10 2.16 2.33 2.43 2.64 2.66 2.67
0.38 0.46 0.57 0.59 0.57 0.54 0.31 0.36 0.44 0.40 0.38 0.34 0.29 0.26 0.24 0.23 0.23 0.24 0.27 0.33 0.40 0.44 0.57 0.75 0.92 1.21 1.39 1.51 1.62 1.81 1.96 2.01 2.02 2.00 2.00 1.99 1.97 1.87 1.80 1.77 1.83 1.95 2.12 2.18 2.27 2.41 2.63 2.72 2.81
0.38 0.58 0.82 0.86 0.82 0.60 0.30 0.42 0.50 0.41 0.33 0.29 0.30 0.28 0.25 0.28 0.32 0.32 0.42 0.55 0.64 0.67 0.76 0.90 0.98 1.16 1.27 1.32 1.39 1.54 1.61 1.67 1.73 1.72 1.69 1.63 1.59 1.58 1.60 1.68 1.77 1.90 2.02 2.11 2.22 2.36 2.40 2.51 2.74
0.34 0.50 0.81 0.89 0.77 0.56 0.42 0.62 0.60 0.42 0.34 0.31 0.31 0.28 0.31 0.41 0.49 0.58 0.71 0.81 0.87 0.88 0.85 0.86 0.99 1.04 1.02 1.05 1.05 1.18 1.27 1.33 1.40 1.40 1.40 1.43 1.47 1.48 1.41 1.46 1.56 1.79 1.98 2.07 2.16 2.17 2.14 2.19 2.38
0.32 0.34 0.40 0.57 0.52 0.54 0.53 0.75 0.72 0.43 0.37 0.33 0.31 0.33 0.40 0.55 0.73 0.94 1.12 1.23 1.30 1.21 1.01 0.88 0.88 0.88 0.85 0.91 0.95 0.99 1.08 1.13 1.16 1.20 1.15 1.25 1.30 1.29 1.23 1.25 1.29 1.42 1.65 1.91 2.06 2.00 1.92 1.88 2.04
0.26 0.35 0.44 0.67 0.83 0.78 0.72 0.88 0.88 0.62 0.51 0.43 0.43 0.53 0.69 0.89 1.16 1.41 1.64 1.76 1.73 1.54 1.27 0.99 0.83 0.80 0.77 0.80 0.84 0.90 0.94 0.96 0.95 0.99 0.94 1.00 1.10 1.09 1.09 1.09 1.14 1.27 1.38 1.58 1.81 1.91 1.85 1.82 1.87
0.29 0.40 0.50 0.66 0.75 0.96 1.10 1.15 0.94 0.83 0.74 0.71 0.77 0.94 1.15 1.41 1.59 1.73 1.88 1.92 1.66 1.48 1.24 0.98 0.82 0.85 0.87 0.86 0.86 0.85 0.82 0.81 0.81 0.81 0.78 0.82 0.89 0.89 0.92 1.08 1.13 1.19 1.25 1.43 1.69 1.87 1.87 1.79 1.79
0.40 0.58 0.75 1.04 0.98 0.94 1.17 1.25 0.91 0.84 0.88 0.91 1.02 1.08 1.19 1.34 1.34 1.41 1.47 1.43 1.38 1.34 1.16 1.01 0.92 0.93 0.97 0.97 0.97 0.90 0.81 0.76 0.75 0.73 0.66 0.67 0.65 0.64 0.76 0.90 0.94 0.97 1.00 1.18 1.47 1.67 1.71 1.67 1.58